Find Starlink 30215

NORAD ID: 57445 Int'l Des: 2023-105 Owner: SPXS Country: US Constellation: starlink operational
LEOCIRCULAR

リアルタイム位置

3D地球を読み込み中...

Starlink 30215について

説明を読み込み中...

次回通過

Passes for default location (London). Set your location on the main map for personalized predictions.

高度履歴

Loading altitude history...

軌道要素

1 57445U 23105R 26125.54038485 -.00001360 00000-0 -39913-4 0 9990
2 57445 43.0009 299.0194 0000824 250.0135 110.0628 15.27588017154111
Epoch: May 5, 2026 • Age: 15 hours

現在のステータス

高度 494.4 km
速度 7.62 km/s
衛星直下点 -39.63°S, 109.21°W
打ち上げ日 Jul 24, 2023
運用期間 2.7 years
タイプ internet

技術仕様

分類 Payload
質量 730.00 kg
乾燥質量 700.00 kg
総質量 730.00 kg
長さ 0.30 m
直径 4.10 m
スパン 29.00 m
形状 Box + pan
製造者 SPXS
バスタイプ Starlink V2M
フェーズステータス In Orbit
所有者/国 SPXS/US

Most Searched